| time (UTC) | temp F | wind direction | speed MPH | gust MPH | rain 1hr in | rain 24hr in | rain mn in | humidity % | barometer mb |
| 20260903105005 | 89 | 220 | 2.0 | 4.0 | 0.00 | 0.00 | 0.00 | 34 | 1020.8 |
| 20260903104505 | 89 | 183 | 3.0 | 4.0 | 0.00 | 0.00 | 0.00 | 33 | 1020.8 |
| 20260903104005 | 89 | 117 | 2.0 | 5.0 | 0.00 | 0.00 | 0.00 | 33 | 1020.8 |
| 20260903102505 | 88 | 86 | 3.0 | 5.0 | 0.00 | 0.00 | 0.00 | 35 | 1021.8 |
| 20260903102005 | 88 | 92 | 4.0 | 4.0 | 0.00 | 0.00 | 0.00 | 35 | 1021.8 |
| 20260903101505 | 88 | 75 | 2.0 | 6.0 | 0.00 | 0.00 | 0.00 | 35 | 1021.8 |
| 20260903101005 | 87 | 64 | 2.0 | 6.0 | 0.00 | 0.00 | 0.00 | 36 | 1021.8 |
| 20260903100005 | 87 | 65 | 6.0 | 8.0 | 0.00 | 0.00 | 0.00 | 37 | 1021.8 |
| 20260903095505 | 87 | 55 | 3.0 | 8.0 | 0.00 | 0.00 | 0.00 | 38 | 1021.8 |
| 20260903094505 | 86 | 59 | 2.0 | 6.0 | 0.00 | 0.00 | 0.00 | 39 | 1021.8 |
| 20260903094005 | 86 | 62 | 3.0 | 7.0 | 0.00 | 0.00 | 0.00 | 40 | 1021.8 |
| 20260903093505 | 85 | 65 | 4.0 | 7.0 | 0.00 | 0.00 | 0.00 | 41 | 1021.8 |
| 20260903092505 | 85 | 117 | 2.0 | 9.0 | 0.00 | 0.00 | 0.00 | 45 | 1021.8 |
| 20260903092005 | 85 | 122 | 4.0 | 9.0 | 0.00 | 0.00 | 0.00 | 46 | 1021.8 |
| 20260903091505 | 84 | 123 | 4.0 | 9.0 | 0.00 | 0.00 | 0.00 | 47 | 1021.8 |
| 20260903091006 | 84 | 121 | 4.0 | 9.0 | 0.00 | 0.00 | 0.00 | 48 | 1021.8 |
| 20260903090505 | 83 | 110 | 5.0 | 8.0 | 0.00 | 0.00 | 0.00 | 48 | 1021.8 |
| 20260903090005 | 83 | 108 | 6.0 | 9.0 | 0.00 | 0.00 | 0.00 | 49 | 1021.8 |
| 20260903085505 | 82 | 114 | 6.0 | 9.0 | 0.00 | 0.00 | 0.00 | 50 | 1021.8 |
| 20260903085005 | 82 | 114 | 4.0 | 7.0 | 0.00 | 0.00 | 0.00 | 50 | 1021.8 |
| 20260903084506 | 81 | 115 | 4.0 | 8.0 | 0.00 | 0.00 | 0.00 | 51 | 1021.8 |
| 20260903083505 | 81 | 124 | 7.0 | 9.0 | 0.00 | 0.00 | 0.00 | 51 | 1021.8 |
| 20260903082505 | 80 | 122 | 6.0 | 9.0 | 0.00 | 0.00 | 0.00 | 54 | 1021.8 |
| 20260903082005 | 79 | 120 | 5.0 | 8.0 | 0.00 | 0.00 | 0.00 | 54 | 1021.8 |
| 20260903081505 | 79 | 120 | 5.0 | 9.0 | 0.00 | 0.00 | 0.00 | 54 | 1021.8 |
| 20260903081005 | 78 | 130 | 4.0 | 9.0 | 0.00 | 0.00 | 0.00 | 55 | 1021.8 |
| 20260903080505 | 78 | 129 | 6.0 | 8.0 | 0.00 | 0.00 | 0.00 | 55 | 1021.8 |
| 20260903080005 | 77 | 112 | 5.0 | 6.0 | 0.00 | 0.00 | 0.00 | 56 | 1021.8 |
| 20260903075504 | 77 | 115 | 4.0 | 6.0 | 0.00 | 0.00 | 0.00 | 57 | 1021.8 |
| 20260903075005 | 76 | 124 | 4.0 | 8.0 | 0.00 | 0.00 | 0.00 | 58 | 1021.8 |
| 20260903074005 | 75 | 122 | 5.0 | 8.0 | 0.00 | 0.00 | 0.00 | 58 | 1021.8 |
| 20260903073505 | 75 | 121 | 3.0 | 8.0 | 0.00 | 0.00 | 0.00 | 60 | 1021.8 |
| 20260903073004 | 74 | 125 | 5.0 | 9.0 | 0.00 | 0.00 | 0.00 | 60 | 1021.8 |
| 20260903072005 | 74 | 120 | 5.0 | 11.0 | 0.00 | 0.00 | 0.00 | 60 | 1021.8 |
| 20260903071505 | 73 | 106 | 5.0 | 9.0 | 0.00 | 0.00 | 0.00 | 61 | 1021.8 |
| 20260903070005 | 72 | 122 | 6.0 | 9.0 | 0.00 | 0.00 | 0.00 | 63 | 1021.8 |
| 20260903065505 | 71 | 126 | 7.0 | 9.0 | 0.00 | 0.00 | 0.00 | 65 | 1021.8 |
| 20260903065005 | 71 | 131 | 5.0 | 8.0 | 0.00 | 0.00 | 0.00 | 66 | 1021.8 |
| 20260903064505 | 70 | 122 | 4.0 | 7.0 | 0.00 | 0.00 | 0.00 | 67 | 1021.8 |
| 20260903064005 | 70 | 122 | 3.0 | 7.0 | 0.00 | 0.00 | 0.00 | 67 | 1021.8 |
| 20260903063505 | 69 | 132 | 2.0 | 7.0 | 0.00 | 0.00 | 0.00 | 68 | 1021.8 |
| 20260903062005 | 68 | 130 | 5.0 | 8.0 | 0.00 | 0.00 | 0.00 | 70 | 1021.8 |
| 20260903061005 | 67 | 116 | 4.0 | 7.0 | 0.00 | 0.00 | 0.00 | 72 | 1021.8 |
| 20260903055505 | 66 | 99 | 0.0 | 4.0 | 0.00 | 0.00 | 0.00 | 74 | 1021.8 |
| 20260903055005 | 66 | 82 | 2.0 | 5.0 | 0.00 | 0.00 | 0.00 | 73 | 1021.8 |
| 20260903054505 | 65 | 82 | 3.0 | 5.0 | 0.00 | 0.00 | 0.00 | 73 | 1021.8 |
| 20260903054005 | 65 | 100 | 2.0 | 6.0 | 0.00 | 0.00 | 0.00 | 73 | 1021.8 |
| 20260903053504 | 65 | 112 | 3.0 | 6.0 | 0.00 | 0.00 | 0.00 | 73 | 1021.8 |
| 20260903053005 | 65 | 132 | 1.0 | 6.0 | 0.00 | 0.00 | 0.00 | 73 | 1021.8 |
| 20260903052005 | 65 | 90 | 2.0 | 6.0 | 0.00 | 0.00 | 0.00 | 73 | 1021.8 |
| 20260903051505 | 65 | 112 | 3.0 | 6.0 | 0.00 | 0.00 | 0.00 | 74 | 1021.8 |
| 20260903050505 | 65 | 127 | 2.0 | 5.0 | 0.00 | 0.00 | 0.00 | 74 | 1021.8 |
| 20260903050004 | 64 | 119 | 2.0 | 6.0 | 0.00 | 0.00 | 0.00 | 74 | 1021.8 |
| 20260903045505 | 64 | 115 | 5.0 | 6.0 | 0.00 | 0.00 | 0.00 | 75 | 1021.8 |
| 20260903044505 | 64 | 136 | 1.0 | 8.0 | 0.00 | 0.00 | 0.00 | 74 | 1021.8 |
| 20260903044005 | 64 | 129 | 5.0 | 8.0 | 0.00 | 0.00 | 0.00 | 74 | 1021.8 |
| 20260903043004 | 64 | 209 | 1.0 | 4.0 | 0.00 | 0.00 | 0.00 | 74 | 1021.8 |
| 20260903042505 | 64 | 256 | 1.0 | 3.0 | 0.00 | 0.00 | 0.00 | 73 | 1021.8 |
| 20260903042004 | 64 | 238 | 1.0 | 5.0 | 0.00 | 0.00 | 0.00 | 71 | 1021.8 |
| 20260903041505 | 64 | 109 | 1.0 | 5.0 | 0.00 | 0.00 | 0.00 | 71 | 1021.8 |
| 20260903041005 | 65 | 69 | 2.0 | 4.0 | 0.00 | 0.00 | 0.00 | 71 | 1021.8 |
| 20260903040504 | 65 | 90 | 1.0 | 4.0 | 0.00 | 0.00 | 0.00 | 70 | 1021.8 |
| 20260903040005 | 65 | 76 | 2.0 | 4.0 | 0.00 | 0.00 | 0.00 | 70 | 1021.8 |
| 20260903035505 | 65 | 26 | 2.0 | 3.0 | 0.00 | 0.00 | 0.00 | 69 | 1021.8 |
| 20260903035005 | 65 | 38 | 0.0 | 3.0 | 0.00 | 0.00 | 0.00 | 69 | 1021.8 |
| 20260903034504 | 65 | 10 | 0.0 | 3.0 | 0.00 | 0.00 | 0.00 | 69 | 1021.8 |
| 20260903034005 | 65 | 49 | 2.0 | 3.0 | 0.00 | 0.00 | 0.00 | 69 | 1021.8 |
| 20260903033504 | 65 | 62 | 1.0 | 4.0 | 0.00 | 0.00 | 0.00 | 69 | 1021.8 |
| 20260903033004 | 66 | 70 | 2.0 | 4.0 | 0.00 | 0.00 | 0.00 | 68 | 1021.8 |
| 20260903032505 | 66 | 81 | 1.0 | 4.0 | 0.00 | 0.00 | 0.00 | 68 | 1021.8 |
| 20260903032005 | 66 | 71 | 3.0 | 4.0 | 0.00 | 0.00 | 0.00 | 67 | 1021.8 |
| 20260903031505 | 66 | 58 | 2.0 | 4.0 | 0.00 | 0.00 | 0.00 | 66 | 1021.8 |
| 20260903031005 | 66 | 63 | 2.0 | 4.0 | 0.00 | 0.00 | 0.00 | 66 | 1021.8 |
| 20260903030505 | 67 | 47 | 2.0 | 3.0 | 0.00 | 0.00 | 0.00 | 65 | 1021.8 |
| 20260903030005 | 67 | 33 | 2.0 | 4.0 | 0.00 | 0.00 | 0.00 | 65 | 1021.8 |
| 20260903025505 | 67 | 81 | 1.0 | 5.0 | 0.00 | 0.00 | 0.00 | 64 | 1021.8 |
| 20260903025004 | 67 | 110 | 2.0 | 5.0 | 0.00 | 0.00 | 0.00 | 64 | 1021.8 |
| 20260903024505 | 67 | 108 | 2.0 | 8.0 | 0.00 | 0.00 | 0.00 | 64 | 1021.8 |
| 20260903024005 | 68 | 103 | 2.0 | 8.0 | 0.00 | 0.00 | 0.00 | 63 | 1021.8 |
| 20260903023505 | 68 | 107 | 3.0 | 6.0 | 0.00 | 0.00 | 0.00 | 63 | 1021.8 |
| 20260903023005 | 68 | 109 | 4.0 | 7.0 | 0.00 | 0.00 | 0.00 | 62 | 1021.8 |
| 20260903022505 | 68 | 114 | 3.0 | 7.0 | 0.00 | 0.00 | 0.00 | 61 | 1021.8 |
| 20260903021505 | 68 | 85 | 3.0 | 6.0 | 0.00 | 0.00 | 0.00 | 61 | 1021.8 |
| 20260903020505 | 69 | 96 | 4.0 | 9.0 | 0.00 | 0.00 | 0.00 | 61 | 1021.8 |
| 20260903020005 | 69 | 94 | 4.0 | 6.0 | 0.00 | 0.00 | 0.00 | 60 | 1021.8 |
| 20260903015505 | 69 | 97 | 3.0 | 6.0 | 0.00 | 0.00 | 0.00 | 60 | 1021.8 |
| 20260903015005 | 69 | 94 | 3.0 | 6.0 | 0.00 | 0.00 | 0.00 | 60 | 1021.8 |
| 20260903014505 | 69 | 101 | 4.0 | 8.0 | 0.00 | 0.00 | 0.00 | 60 | 1021.8 |
| 20260903014005 | 69 | 102 | 3.0 | 8.0 | 0.00 | 0.00 | 0.00 | 59 | 1021.8 |
| 20260903013505 | 69 | 102 | 3.0 | 6.0 | 0.00 | 0.00 | 0.00 | 59 | 1021.8 |
| 20260903012505 | 70 | 104 | 4.0 | 9.0 | 0.00 | 0.00 | 0.00 | 59 | 1021.8 |
| 20260903011005 | 71 | 98 | 4.0 | 12.0 | 0.00 | 0.00 | 0.00 | 57 | 1021.8 |
| 20260903010005 | 71 | 103 | 5.0 | 9.0 | 0.00 | 0.00 | 0.00 | 56 | 1021.8 |
| 20260903005505 | 71 | 93 | 6.0 | 11.0 | 0.00 | 0.00 | 0.00 | 56 | 1021.8 |
| 20260903005004 | 71 | 90 | 5.0 | 11.0 | 0.00 | 0.00 | 0.00 | 56 | 1021.8 |
| 20260903004005 | 71 | 93 | 8.0 | 12.0 | 0.00 | 0.00 | 0.00 | 55 | 1021.8 |
| 20260903003004 | 72 | 86 | 7.0 | 11.0 | 0.00 | 0.00 | 0.00 | 55 | 1021.8 |
| 20260903002505 | 72 | 79 | 7.0 | 13.0 | 0.00 | 0.00 | 0.00 | 55 | 1021.8 |
| 20260903002004 | 71 | 83 | 7.0 | 13.0 | 0.00 | 0.00 | 0.00 | 54 | 1021.8 |
| 20260903001505 | 71 | 95 | 5.0 | 12.0 | 0.00 | 0.00 | 0.00 | 55 | 1021.8 |
| 20260903001005 | 71 | 102 | 8.0 | 12.0 | 0.00 | 0.00 | 0.00 | 55 | 1020.8 |
| 20260903000505 | 71 | 106 | 6.0 | 10.0 | 0.00 | 0.00 | 0.00 | 55 | 1020.8 |
| 20260903000004 | 72 | 111 | 7.0 | 9.0 | 0.00 | 0.00 | 0.00 | 54 | 1020.8 |
| 20260902235505 | 72 | 107 | 6.0 | 9.0 | 0.00 | 0.00 | 0.00 | 53 | 1020.8 |
| 20260902235005 | 73 | 100 | 5.0 | 9.0 | 0.00 | 0.00 | 0.00 | 52 | 1020.8 |
| 20260902234504 | 74 | 103 | 6.0 | 9.0 | 0.00 | 0.00 | 0.00 | 51 | 1020.8 |
| 20260902233004 | 74 | 42 | 7.0 | 17.0 | 0.00 | 0.00 | 0.00 | 50 | 1020.8 |
| 20260902232504 | 73 | 43 | 7.0 | 13.0 | 0.00 | 0.00 | 0.00 | 51 | 1020.8 |
| 20260902232005 | 72 | 42 | 6.0 | 9.0 | 0.00 | 0.00 | 0.00 | 52 | 1020.8 |
| 20260902231504 | 73 | 195 | 3.0 | 6.0 | 0.00 | 0.00 | 0.00 | 53 | 1020.8 |
| 20260902231005 | 73 | 157 | 4.0 | 6.0 | 0.00 | 0.00 | 0.00 | 53 | 1020.8 |
| 20260902230504 | 73 | 113 | 2.0 | 6.0 | 0.00 | 0.00 | 0.00 | 54 | 1020.8 |
| 20260902230005 | 73 | 97 | 4.0 | 6.0 | 0.00 | 0.00 | 0.00 | 53 | 1020.8 |
| 20260902225005 | 74 | 111 | 3.0 | 7.0 | 0.00 | 0.00 | 0.00 | 51 | 1020.8 |
| 20260902224504 | 74 | 120 | 3.0 | 6.0 | 0.00 | 0.00 | 0.00 | 50 | 1020.8 |
| 20260902224005 | 75 | 119 | 4.0 | 6.0 | 0.00 | 0.00 | 0.00 | 51 | 1020.8 |
| 20260902223504 | 75 | 128 | 3.0 | 6.0 | 0.00 | 0.00 | 0.00 | 50 | 1020.8 |
| 20260902223005 | 75 | 121 | 3.0 | 5.0 | 0.00 | 0.00 | 0.00 | 50 | 1020.8 |
| 20260902222505 | 76 | 94 | 3.0 | 11.0 | 0.00 | 0.00 | 0.00 | 49 | 1021.8 |
| 20260902222004 | 76 | 72 | 4.0 | 12.0 | 0.00 | 0.00 | 0.00 | 47 | 1021.8 |
| 20260902221504 | 76 | 70 | 6.0 | 13.0 | 0.00 | 0.00 | 0.00 | 48 | 1021.8 |
| 20260902221005 | 76 | 77 | 9.0 | 13.0 | 0.00 | 0.00 | 0.00 | 48 | 1020.8 |
| 20260902220505 | 76 | 71 | 7.0 | 14.0 | 0.00 | 0.00 | 0.00 | 49 | 1020.8 |
| 20260902220010 | 76 | 65 | 9.0 | 14.0 | 0.00 | 0.00 | 0.00 | 49 | 1020.8 |
| 20260902215505 | 76 | 64 | 8.0 | 13.0 | 0.00 | 0.00 | 0.00 | 50 | 1020.8 |
| 20260902215004 | 75 | 61 | 11.0 | 15.0 | 0.00 | 0.00 | 0.00 | 51 | 1020.8 |
| 20260902214504 | 75 | 52 | 11.0 | 15.0 | 0.00 | 0.00 | 0.00 | 53 | 1020.8 |
| 20260902214005 | 74 | 56 | 8.0 | 14.0 | 0.00 | 0.00 | 0.00 | 56 | 1020.8 |
| 20260902213505 | 73 | 75 | 4.0 | 13.0 | 0.00 | 0.00 | 0.00 | 59 | 1020.8 |
| 20260902212505 | 70 | 75 | 4.0 | 11.0 | 0.00 | 0.00 | 0.00 | 67 | 1020.8 |
| 20260902212006 | 69 | 100 | 2.0 | 6.0 | 0.00 | 0.00 | 0.00 | 71 | 1020.8 |
| 20260902211507 | 69 | 102 | 3.0 | 9.0 | 0.00 | 0.00 | 0.00 | 74 | 1020.8 |
| 20260902211007 | 69 | 86 | 5.0 | 9.0 | 0.00 | 0.00 | 0.00 | 75 | 1020.8 |
| 20260902210507 | 69 | 63 | 3.0 | 5.0 | 0.00 | 0.00 | 0.00 | 74 | 1020.8 |
| 20260902205006 | 69 | 90 | 0.0 | 2.0 | 0.00 | 0.00 | 0.00 | 73 | 1020.8 |
| 20260902204507 | 69 | 90 | 0.0 | 2.0 | 0.00 | 0.00 | 0.00 | 72 | 1020.8 |
| 20260902204007 | 69 | 90 | 0.0 | 2.0 | 0.00 | 0.00 | 0.00 | 72 | 1020.8 |
| 20260902203507 | 69 | 83 | 2.0 | 2.0 | 0.00 | 0.00 | 0.00 | 73 | 1020.8 |
| 20260902202507 | 70 | 42 | 2.0 | 2.0 | 0.00 | 0.00 | 0.00 | 71 | 1020.8 |
| 20260902202007 | 70 | 14 | 1.0 | 2.0 | 0.00 | 0.00 | 0.00 | 72 | 1020.8 |
| 20260902201506 | 70 | 1 | 0.0 | 2.0 | 0.00 | 0.00 | 0.00 | 71 | 1020.8 |
| 20260902201007 | 70 | 19 | 0.0 | 2.0 | 0.00 | 0.00 | 0.00 | 71 | 1020.8 |
| 20260902200506 | 70 | 86 | 1.0 | 2.0 | 0.00 | 0.00 | 0.00 | 70 | 1020.8 |
| 20260902195507 | 71 | 219 | 0.0 | 2.0 | 0.00 | 0.00 | 0.00 | 70 | 1020.8 |
| 20260902195006 | 71 | 293 | 0.0 | 2.0 | 0.00 | 0.00 | 0.00 | 70 | 1020.8 |
| 20260902194506 | 71 | 342 | 2.0 | 2.0 | 0.00 | 0.00 | 0.00 | 69 | 1020.8 |
| 20260902193506 | 71 | 66 | 2.0 | 3.0 | 0.00 | 0.00 | 0.00 | 68 | 1020.8 |
| 20260902193006 | 72 | 77 | 2.0 | 3.0 | 0.00 | 0.00 | 0.00 | 68 | 1020.8 |
| 20260902192506 | 72 | 347 | 2.0 | 3.0 | 0.00 | 0.00 | 0.00 | 68 | 1020.8 |
| 20260902192007 | 72 | 28 | 2.0 | 3.0 | 0.00 | 0.00 | 0.00 | 66 | 1020.8 |
| 20260902191507 | 72 | 107 | 2.0 | 3.0 | 0.00 | 0.00 | 0.00 | 65 | 1020.8 |
| 20260902191007 | 72 | 134 | 2.0 | 3.0 | 0.00 | 0.00 | 0.00 | 66 | 1019.8 |
| 20260902190507 | 72 | 265 | 2.0 | 3.0 | 0.00 | 0.00 | 0.00 | 66 | 1019.8 |
| 20260902190007 | 73 | 329 | 0.0 | 3.0 | 0.00 | 0.00 | 0.00 | 64 | 1019.8 |
| 20260902185507 | 73 | 70 | 0.0 | 5.0 | 0.00 | 0.00 | 0.00 | 63 | 1019.8 |
| 20260902184008 | 74 | 95 | 2.0 | 2.0 | 0.00 | 0.00 | 0.00 | 63 | 1019.8 |
| 20260902183507 | 74 | 90 | 0.0 | 2.0 | 0.00 | 0.00 | 0.00 | 62 | 1019.8 |
| 20260902183007 | 75 | 89 | 0.0 | 2.0 | 0.00 | 0.00 | 0.00 | 61 | 1019.8 |
| 20260902182506 | 75 | 70 | 1.0 | 2.0 | 0.00 | 0.00 | 0.00 | 61 | 1019.8 |
| 20260902182007 | 76 | 39 | 2.0 | 2.0 | 0.00 | 0.00 | 0.00 | 60 | 1019.8 |
| 20260902181507 | 76 | 90 | 2.0 | 2.0 | 0.00 | 0.00 | 0.00 | 59 | 1019.8 |
| 20260902180507 | 76 | 269 | 0.0 | 2.0 | 0.00 | 0.00 | 0.00 | 60 | 1019.8 |
| 20260902180008 | 77 | 344 | 0.0 | 2.0 | 0.00 | 0.00 | 0.00 | 59 | 1019.8 |
| 20260902175506 | 77 | 22 | 1.0 | 2.0 | 0.00 | 0.00 | 0.00 | 57 | 1019.8 |
| 20260902175006 | 77 | 0 | 0.0 | 0.0 | 0.00 | 0.00 | 0.00 | 57 | 1019.8 |
| 20260902174007 | 78 | 118 | 0.0 | 2.0 | 0.00 | 0.00 | 0.00 | 58 | 1019.8 |
| 20260902173506 | 78 | 24 | 0.0 | 2.0 | 0.00 | 0.00 | 0.00 | 56 | 1019.8 |
| 20260902173006 | 79 | 40 | 1.0 | 2.0 | 0.00 | 0.00 | 0.00 | 55 | 1019.8 |
| 20260902172007 | 79 | 45 | 1.0 | 2.0 | 0.00 | 0.00 | 0.00 | 55 | 1018.8 |
| 20260902171506 | 80 | 45 | 2.0 | 2.0 | 0.00 | 0.00 | 0.00 | 53 | 1018.8 |
| 20260902170507 | 80 | 71 | 1.0 | 2.0 | 0.00 | 0.00 | 0.00 | 53 | 1019.8 |
| 20260902165507 | 81 | 113 | 0.0 | 2.0 | 0.00 | 0.00 | 0.00 | 51 | 1018.8 |
| 20260902165007 | 81 | 232 | 1.0 | 2.0 | 0.00 | 0.00 | 0.00 | 51 | 1018.8 |
| 20260902164507 | 81 | 245 | 0.0 | 2.0 | 0.00 | 0.00 | 0.00 | 50 | 1018.8 |
| 20260902164008 | 82 | 235 | 2.0 | 2.0 | 0.00 | 0.00 | 0.00 | 50 | 1018.8 |
| 20260902163507 | 82 | 249 | 1.0 | 3.0 | 0.00 | 0.00 | 0.00 | 50 | 1018.8 |
| 20260902162006 | 82 | 244 | 2.0 | 3.0 | 0.00 | 0.00 | 0.00 | 51 | 1018.8 |
| 20260902161506 | 83 | 299 | 2.0 | 2.0 | 0.00 | 0.00 | 0.00 | 52 | 1018.8 |
| 20260902161007 | 83 | 26 | 0.0 | 2.0 | 0.00 | 0.00 | 0.00 | 52 | 1018.8 |
| 20260902160507 | 83 | 135 | 0.0 | 2.0 | 0.00 | 0.00 | 0.00 | 52 | 1018.8 |
| 20260902160009 | 83 | 129 | 1.0 | 2.0 | 0.00 | 0.00 | 0.00 | 52 | 1018.8 |
| 20260902155506 | 83 | 78 | 0.0 | 2.0 | 0.00 | 0.00 | 0.00 | 52 | 1018.8 |
| 20260902155006 | 83 | 66 | 0.0 | 2.0 | 0.00 | 0.00 | 0.00 | 52 | 1018.8 |
| 20260902154506 | 83 | 183 | 0.0 | 2.0 | 0.00 | 0.00 | 0.00 | 51 | 1018.8 |
| 20260902153506 | 84 | 140 | 1.0 | 2.0 | 0.00 | 0.00 | 0.00 | 51 | 1019.8 |
| 20260902153006 | 84 | 112 | 0.0 | 2.0 | 0.00 | 0.00 | 0.00 | 49 | 1019.8 |
| 20260902152007 | 85 | 118 | 2.0 | 2.0 | 0.00 | 0.00 | 0.00 | 46 | 1019.8 |
| 20260902151506 | 85 | 139 | 2.0 | 3.0 | 0.00 | 0.00 | 0.00 | 46 | 1019.8 |
| 20260902151007 | 85 | 169 | 2.0 | 3.0 | 0.00 | 0.00 | 0.00 | 47 | 1018.8 |
| 20260902150507 | 85 | 203 | 0.0 | 2.0 | 0.00 | 0.00 | 0.00 | 44 | 1018.8 |
| 20260902150006 | 85 | 192 | 2.0 | 2.0 | 0.00 | 0.00 | 0.00 | 45 | 1018.8 |
| 20260902145506 | 86 | 187 | 0.0 | 2.0 | 0.00 | 0.00 | 0.00 | 46 | 1018.8 |
| 20260902145006 | 86 | 223 | 2.0 | 2.0 | 0.00 | 0.00 | 0.00 | 42 | 1018.8 |
| 20260902144507 | 87 | 237 | 1.0 | 3.0 | 0.00 | 0.00 | 0.00 | 37 | 1018.8 |
| 20260902144007 | 87 | 227 | 2.0 | 3.0 | 0.00 | 0.00 | 0.00 | 36 | 1019.8 |
| 20260902142507 | 87 | 226 | 1.0 | 3.0 | 0.00 | 0.00 | 0.00 | 38 | 1019.8 |
| 20260902142006 | 87 | 206 | 2.0 | 4.0 | 0.00 | 0.00 | 0.00 | 37 | 1019.8 |
| 20260902140507 | 87 | 157 | 2.0 | 4.0 | 0.00 | 0.00 | 0.00 | 35 | 1019.8 |
| 20260902140006 | 86 | 37 | 3.0 | 4.0 | 0.00 | 0.00 | 0.00 | 36 | 1019.8 |
| 20260902135507 | 86 | 61 | 2.0 | 4.0 | 0.00 | 0.00 | 0.00 | 36 | 1018.8 |
| 20260902135006 | 86 | 91 | 2.0 | 4.0 | 0.00 | 0.00 | 0.00 | 38 | 1018.8 |
| 20260902134006 | 86 | 72 | 1.0 | 4.0 | 0.00 | 0.00 | 0.00 | 38 | 1018.8 |
| 20260902133507 | 86 | 71 | 2.0 | 4.0 | 0.00 | 0.00 | 0.00 | 36 | 1018.8 |
| 20260902133007 | 86 | 87 | 3.0 | 4.0 | 0.00 | 0.00 | 0.00 | 35 | 1018.8 |
| 20260902132506 | 87 | 138 | 2.0 | 3.0 | 0.00 | 0.00 | 0.00 | 36 | 1018.8 |
| 20260902131507 | 87 | 181 | 2.0 | 3.0 | 0.00 | 0.00 | 0.00 | 37 | 1018.8 |
| 20260902131006 | 87 | 216 | 1.0 | 3.0 | 0.00 | 0.00 | 0.00 | 33 | 1018.8 |
| 20260902130506 | 87 | 358 | 2.0 | 4.0 | 0.00 | 0.00 | 0.00 | 33 | 1018.8 |
| 20260902130007 | 87 | 45 | 2.0 | 4.0 | 0.00 | 0.00 | 0.00 | 33 | 1018.8 |
| 20260902125006 | 88 | 60 | 2.0 | 8.0 | 0.00 | 0.00 | 0.00 | 33 | 1018.8 |
| 20260902124506 | 88 | 65 | 5.0 | 8.0 | 0.00 | 0.00 | 0.00 | 34 | 1018.8 |
| 20260902124007 | 89 | 47 | 2.0 | 8.0 | 0.00 | 0.00 | 0.00 | 34 | 1019.8 |
| 20260902123506 | 89 | 60 | 2.0 | 9.0 | 0.00 | 0.00 | 0.00 | 33 | 1019.8 |
| 20260902123007 | 88 | 76 | 4.0 | 9.0 | 0.00 | 0.00 | 0.00 | 34 | 1019.8 |
| 20260902121506 | 88 | 58 | 5.0 | 8.0 | 0.00 | 0.00 | 0.00 | 34 | 1019.8 |
| 20260902121006 | 88 | 47 | 6.0 | 9.0 | 0.00 | 0.00 | 0.00 | 33 | 1019.8 |
| 20260902120506 | 88 | 40 | 6.0 | 9.0 | 0.00 | 0.00 | 0.00 | 34 | 1019.8 |
| 20260902120006 | 88 | 55 | 2.0 | 9.0 | 0.00 | 0.00 | 0.00 | 34 | 1019.8 |
| 20260902115506 | 88 | 65 | 4.0 | 9.0 | 0.00 | 0.00 | 0.00 | 33 | 1019.8 |
| 20260902114506 | 87 | 67 | 3.0 | 9.0 | 0.00 | 0.00 | 0.00 | 34 | 1019.8 |
| 20260902113506 | 87 | 62 | 3.0 | 9.0 | 0.00 | 0.00 | 0.00 | 35 | 1020.8 |
| 20260902113006 | 87 | 60 | 5.0 | 9.0 | 0.00 | 0.00 | 0.00 | 35 | 1020.8 |
| 20260902112506 | 87 | 57 | 4.0 | 9.0 | 0.00 | 0.00 | 0.00 | 34 | 1020.8 |
| 20260902112006 | 86 | 40 | 4.0 | 10.0 | 0.00 | 0.00 | 0.00 | 34 | 1020.8 |
| 20260902111006 | 86 | 51 | 5.0 | 12.0 | 0.00 | 0.00 | 0.00 | 35 | 1020.8 |
| 20260902110506 | 86 | 51 | 8.0 | 12.0 | 0.00 | 0.00 | 0.00 | 35 | 1020.8 |
| 20260902110008 | 86 | 47 | 6.0 | 10.0 | 0.00 | 0.00 | 0.00 | 34 | 1020.8 |
| 20260902105506 | 86 | 47 | 7.0 | 10.0 | 0.00 | 0.00 | 0.00 | 34 | 1020.8 |